QPF
0.00 0.00 0.00 0.01 0.01 0.00 0.00 0.01 0.00 0.00 0.00 0.00 0.00 0.00 0.01 0.02 0.01 0.00 0.00 0.00 0.00 0.00 0.00 0.00 0.00 0.00 0.00 0.01 0.01 0.02 0.03 0.05 0.06 0.13 0.18 0.11 0.09 0.08 0.07 0.06 0.06 0.07 0.07 0.06
0.00 0.00 0.00 0.00 0.00 0.00 0.00 0.00 0.00 0.00 0.00 0.00 0.00 0.00 0.00 0.00 0.00 0.00 0.00 0.00 0.00 0.00 0.00 0.00 0.00 0.00 0.00 0.00 0.01 0.01 0.03 0.04 0.05 0.09 0.12 0.10 0.07 0.06 0.05 0.04 0.05 0.06 0.06 0.07
0.00 0.00 0.00 0.00 0.00 0.00 0.00 0.00 0.00 0.00 0.00 0.00 0.00 0.01 0.00 0.00 0.00 0.00 0.00 0.00 0.00 0.00 0.00 0.00 0.00 0.00 0.00 0.00 0.00 0.01 0.01 0.02 0.04 0.06 0.06 0.07 0.08 0.08 0.06 0.05 0.05 0.06 0.06 0.07
0.00 0.00 0.00 0.00 0.00 0.00 0.00 0.00 0.00 0.00 0.00 0.00 0.00 0.02 0.01 0.02 0.01 0.00 0.00 0.00 0.00 0.00 0.00 0.00 0.00 0.00 0.00 0.00 0.00 0.00 0.01 0.02 0.02 0.03 0.04 0.05 0.06 0.06 0.04 0.04 0.04 0.05 0.05 0.06
0.00 0.00 0.00 0.00 0.00 0.00 0.00 0.00 0.00 0.00 0.00 0.00 0.00 0.00 0.00 0.00 0.01 0.00 0.00 0.00 0.00 0.00 0.00 0.00 0.00 0.00 0.00 0.00 0.00 0.00 0.01 0.01 0.01 0.02 0.04 0.06 0.05 0.04 0.04 0.04 0.05 0.05 0.04 0.04
0.00 0.00 0.00 0.00 0.00 0.00 0.00 0.01 0.01 0.01 0.00 0.01 0.01 0.01 0.00 0.00 0.00 0.00 0.00 0.00 0.00 0.00 0.00 0.00 0.00 0.00 0.00 0.00 0.00 0.00 0.01 0.01 0.01 0.02 0.02 0.05 0.07 0.07 0.06 0.06 0.05 0.05 0.04 0.05
0.00 0.00 0.00 0.00 0.00 0.00 0.00 0.01 0.04 0.03 0.02 0.03 0.01 0.01 0.00 0.00 0.00 0.00 0.00 0.00 0.00 0.00 0.00 0.00 0.00 0.00 0.00 0.00 0.00 0.00 0.01 0.01 0.01 0.01 0.02 0.03 0.05 0.05 0.05 0.05 0.05 0.04 0.03 0.03
0.00 0.00 0.00 0.00 0.00 0.00 0.00 0.02 0.04 0.05 0.04 0.02 0.00 0.00 0.00 0.00 0.01 0.01 0.01 0.01 0.00 0.00 0.00 0.00 0.00 0.00 0.00 0.00 0.00 0.00 0.00 0.00 0.01 0.01 0.02 0.03 0.04 0.04 0.04 0.05 0.03 0.03 0.03 0.02
0.00 0.00 0.00 0.00 0.00 0.00 0.01 0.01 0.00 0.01 0.01 0.01 0.01 0.00 0.00 0.00 0.00 0.01 0.01 0.01 0.00 0.00 0.00 0.00 0.00 0.00 0.00 0.00 0.00 0.00 0.00 0.00 0.01 0.01 0.03 0.03 0.04 0.04 0.05 0.04 0.03 0.02 0.03 0.03
0.00 0.00 0.00 0.00 0.00 0.00 0.00 0.00 0.00 0.01 0.01 0.01 0.01 0.01 0.01 0.00 0.00 0.00 0.00 0.01 0.00 0.00 0.00 0.00 0.00 0.00 0.00 0.00 0.00 0.00 0.00 0.00 0.01 0.01 0.02 0.03 0.03 0.03 0.04 0.04 0.04 0.04 0.03 0.03
0.00 0.00 0.00 0.00 0.00 0.00 0.00 0.00 0.00 0.01 0.01 0.01 0.02 0.02 0.01 0.00 0.00 0.00 0.00 0.01 0.01 0.00 0.00 0.00 0.00 0.00 0.00 0.00 0.00 0.00 0.00 0.00 0.01 0.01 0.01 0.01 0.01 0.01 0.01 0.02 0.03 0.03 0.03 0.03
0.00 0.00 0.00 0.00 0.00 0.00 0.00 0.00 0.00 0.00 0.00 0.01 0.04 0.06 0.02 0.00 0.00 0.00 0.00 0.00 0.01 0.00 0.00 0.00 0.00 0.00 0.00 0.00 0.00 0.00 0.00 0.00 0.00 0.01 0.01 0.01 0.01 0.01 0.01 0.01 0.01 0.01 0.02 0.03
0.00 0.00 0.00 0.00 0.00 0.00 0.00 0.00 0.00 0.00 0.00 0.00 0.03 0.04 0.01 0.00 0.00 0.00 0.00 0.00 0.00 0.00 0.00 0.00 0.00 0.00 0.00 0.00 0.00 0.00 0.00 0.00 0.00 0.01 0.01 0.01 0.01 0.01 0.01 0.01 0.01 0.01 0.03 0.03
0.00 0.00 0.00 0.00 0.00 0.00 0.00 0.00 0.00 0.00 0.00 0.00 0.00 0.01 0.00 0.00 0.01 0.00 0.00 0.00 0.00 0.00 0.00 0.00 0.00 0.00 0.00 0.00 0.00 0.01 0.01 0.01 0.02 0.02 0.01 0.01 0.01 0.02 0.01 0.01 0.01 0.01 0.01 0.02
0.00 0.00 0.00 0.00 0.00 0.00 0.00 0.00 0.00 0.00 0.00 0.00 0.01 0.01 0.00 0.00 0.00 0.00 0.00 0.00 0.00 0.00 0.00 0.00 0.00 0.00 0.00 0.00 0.01 0.01 0.01 0.01 0.02 0.02 0.02 0.02 0.01 0.02 0.02 0.01 0.01 0.02 0.01 0.01
0.00 0.00 0.00 0.00 0.00 0.00 0.00 0.00 0.00 0.00 0.00 0.00 0.01 0.02 0.01 0.00 0.00 0.00 0.00 0.00 0.00 0.00 0.00 0.00 0.00 0.00 0.00 0.00 0.00 0.00 0.01 0.01 0.01 0.01 0.01 0.01 0.01 0.02 0.02 0.02 0.02 0.03 0.02 0.02
0.00 0.00 0.00 0.00 0.01 0.00 0.00 0.00 0.00 0.00 0.00 0.00 0.00 0.00 0.00 0.00 0.00 0.00 0.00 0.00 0.00 0.00 0.00 0.01 0.01 0.00 0.00 0.00 0.00 0.00 0.00 0.01 0.02 0.02 0.02 0.02 0.02 0.02 0.02 0.01 0.02 0.02 0.02 0.02
0.00 0.00 0.00 0.00 0.00 0.00 0.00 0.00 0.00 0.00 0.00 0.00 0.00 0.00 0.00 0.00 0.00 0.00 0.00 0.00 0.00 0.00 0.00 0.03 0.04 0.02 0.00 0.00 0.00 0.00 0.01 0.01 0.01 0.02 0.02 0.03 0.03 0.02 0.02 0.02 0.02 0.02 0.03 0.03
0.00 0.00 0.00 0.00 0.00 0.00 0.00 0.00 0.00 0.00 0.00 0.00 0.00 0.00 0.00 0.00 0.00 0.01 0.00 0.00 0.00 0.00 0.00 0.01 0.02 0.01 0.00 0.00 0.00 0.00 0.01 0.01 0.01 0.02 0.04 0.02 0.03 0.02 0.02 0.03 0.03 0.03 0.03 0.03
0.00 0.00 0.00 0.00 0.00 0.00 0.00 0.00 0.00 0.00 0.00 0.00 0.00 0.00 0.00 0.00 0.01 0.01 0.00 0.00 0.01 0.00 0.00 0.00 0.00 0.00 0.00 0.00 0.00 0.00 0.00 0.01 0.02 0.03 0.03 0.02 0.02 0.02 0.02 0.03 0.03 0.04 0.04 0.04
0.01 0.00 0.00 0.00 0.00 0.00 0.00 0.00 0.00 0.01 0.01 0.00 0.00 0.00 0.00 0.00 0.00 0.00 0.00 0.01 0.00 0.00 0.00 0.00 0.00 0.00 0.00 0.00 0.00 0.01 0.01 0.02 0.03 0.04 0.04 0.03 0.02 0.02 0.02 0.03 0.03 0.03 0.03 0.04
0.00 0.00 0.00 0.00 0.01 0.01 0.00 0.00 0.01 0.01 0.00 0.00 0.00 0.00 0.00 0.00 0.00 0.00 0.00 0.01 0.00 0.00 0.00 0.00 0.00 0.00 0.01 0.01 0.02 0.02 0.03 0.03 0.03 0.04 0.05 0.04 0.04 0.04 0.04 0.06 0.06 0.06 0.05 0.04
0.00 0.01 0.01 0.01 0.01 0.02 0.01 0.00 0.00 0.00 0.00 0.00 0.00 0.00 0.00 0.00 0.00 0.00 0.00 0.00 0.00 0.00 0.00 0.00 0.01 0.01 0.01 0.02 0.02 0.04 0.04 0.04 0.05 0.06 0.05 0.04 0.04 0.04 0.04 0.04 0.03 0.02 0.02 0.02
0.01 0.01 0.01 0.02 0.02 0.03 0.02 0.02 0.01 0.00 0.00 0.00 0.00 0.00 0.00 0.00 0.00 0.00 0.00 0.00 0.00 0.00 0.01 0.01 0.02 0.02 0.02 0.02 0.03 0.03 0.03 0.04 0.04 0.05 0.04 0.03 0.02 0.02 0.02 0.02 0.02 0.02 0.02 0.02
0.01 0.01 0.01 0.03 0.03 0.03 0.01 0.00 0.00 0.00 0.00 0.00 0.00 0.00 0.00 0.00 0.00 0.00 0.01 0.01 0.01 0.02 0.02 0.02 0.02 0.03 0.03 0.03 0.03 0.02 0.02 0.03 0.04 0.04 0.04 0.02 0.01 0.01 0.02 0.02 0.02 0.02 0.02 0.02
0.01 0.01 0.03 0.03 0.02 0.02 0.03 0.01 0.01 0.00 0.00 0.00 0.00 0.00 0.00 0.00 0.00 0.00 0.01 0.01 0.02 0.02 0.02 0.02 0.03 0.04 0.04 0.03 0.03 0.02 0.02 0.02 0.03 0.04 0.03 0.01 0.01 0.01 0.01 0.01 0.02 0.02 0.02 0.02
MSLP
1006.35 1007.45 1008.29 1008.80 1008.98 1008.87 1008.57 1008.18 1007.79 1007.50 1007.35 1007.34 1007.46 1007.67 1007.93 1008.20 1008.46 1008.69 1008.90 1009.08 1009.26 1009.42 1009.57 1009.70 1009.79 1009.85 1009.87 1009.86 1009.82 1009.77 1009.72 1009.68 1009.63 1009.59 1009.56 1009.52 1009.50 1009.49 1009.53 1009.61 1009.76 1009.98 1010.27 1010.62
1006.55 1007.45 1008.14 1008.55 1008.71 1008.66 1008.46 1008.20 1007.94 1007.74 1007.62 1007.59 1007.64 1007.73 1007.87 1008.02 1008.20 1008.41 1008.64 1008.90 1009.18 1009.45 1009.69 1009.90 1010.03 1010.11 1010.13 1010.12 1010.10 1010.10 1010.13 1010.20 1010.29 1010.40 1010.49 1010.56 1010.60 1010.60 1010.60 1010.60 1010.65 1010.77 1010.97 1011.26
1006.44 1007.11 1007.62 1007.96 1008.16 1008.23 1008.24 1008.22 1008.19 1008.17 1008.14 1008.11 1008.06 1008.00 1007.93 1007.90 1007.92 1008.03 1008.23 1008.53 1008.90 1009.29 1009.66 1009.97 1010.18 1010.30 1010.33 1010.31 1010.28 1010.29 1010.37 1010.51 1010.72 1010.96 1011.19 1011.38 1011.51 1011.56 1011.55 1011.52 1011.50 1011.54 1011.66 1011.87
1006.15 1006.56 1006.91 1007.21 1007.49 1007.77 1008.07 1008.37 1008.65 1008.87 1008.97 1008.95 1008.79 1008.52 1008.19 1007.87 1007.65 1007.57 1007.68 1007.97 1008.40 1008.91 1009.42 1009.87 1010.19 1010.37 1010.43 1010.41 1010.37 1010.37 1010.45 1010.64 1010.91 1011.25 1011.59 1011.89 1012.11 1012.22 1012.25 1012.21 1012.16 1012.15 1012.21 1012.37
1005.80 1005.97 1006.18 1006.47 1006.88 1007.41 1008.05 1008.72 1009.35 1009.84 1010.10 1010.09 1009.80 1009.29 1008.64 1007.97 1007.42 1007.09 1007.03 1007.25 1007.70 1008.32 1008.98 1009.58 1010.04 1010.33 1010.45 1010.45 1010.40 1010.37 1010.43 1010.61 1010.91 1011.29 1011.71 1012.09 1012.39 1012.57 1012.64 1012.63 1012.58 1012.54 1012.57 1012.69
1005.52 1005.49 1005.58 1005.89 1006.44 1007.23 1008.20 1009.25 1010.22 1010.98 1011.39 1011.39 1010.98 1010.21 1009.23 1008.19 1007.28 1006.63 1006.35 1006.45 1006.89 1007.57 1008.36 1009.13 1009.75 1010.18 1010.39 1010.44 1010.40 1010.35 1010.37 1010.52 1010.80 1011.19 1011.63 1012.05 1012.40 1012.64 1012.76 1012.78 1012.74 1012.71 1012.72 1012.82
1005.40 1005.21 1005.22 1005.54 1006.21 1007.22 1008.48 1009.85 1011.12 1012.11 1012.66 1012.68 1012.15 1011.17 1009.87 1008.48 1007.21 1006.25 1005.72 1005.67 1006.06 1006.78 1007.68 1008.59 1009.38 1009.95 1010.29 1010.41 1010.40 1010.35 1010.34 1010.45 1010.69 1011.04 1011.47 1011.90 1012.28 1012.55 1012.70 1012.75 1012.74 1012.71 1012.73 1012.82
1005.49 1005.18 1005.13 1005.45 1006.19 1007.34 1008.79 1010.37 1011.85 1013.02 1013.67 1013.71 1013.12 1011.97 1010.45 1008.78 1007.22 1005.99 1005.24 1005.03 1005.33 1006.05 1007.01 1008.04 1008.97 1009.69 1010.15 1010.38 1010.43 1010.39 1010.38 1010.45 1010.64 1010.95 1011.34 1011.76 1012.12 1012.40 1012.57 1012.64 1012.64 1012.64 1012.66 1012.75
1005.77 1005.39 1005.28 1005.57 1006.31 1007.49 1009.01 1010.67 1012.25 1013.51 1014.23 1014.30 1013.69 1012.48 1010.84 1009.01 1007.27 1005.85 1004.93 1004.58 1004.79 1005.47 1006.44 1007.53 1008.56 1009.39 1009.98 1010.31 1010.44 1010.46 1010.46 1010.53 1010.69 1010.96 1011.31 1011.69 1012.03 1012.30 1012.46 1012.54 1012.55 1012.55 1012.58 1012.67
1006.20 1005.80 1005.64 1005.85 1006.51 1007.61 1009.05 1010.66 1012.21 1013.46 1014.21 1014.32 1013.75 1012.57 1010.94 1009.10 1007.31 1005.82 1004.80 1004.35 1004.47 1005.08 1006.01 1007.10 1008.16 1009.06 1009.74 1010.17 1010.40 1010.49 1010.55 1010.64 1010.80 1011.06 1011.38 1011.72 1012.03 1012.28 1012.43 1012.49 1012.50 1012.49 1012.52 1012.61
1006.75 1006.36 1006.15 1006.26 1006.76 1007.66 1008.89 1010.31 1011.71 1012.86 1013.58 1013.72 1013.23 1012.18 1010.69 1008.98 1007.29 1005.84 1004.82 1004.32 1004.36 1004.86 1005.70 1006.72 1007.75 1008.66 1009.38 1009.89 1010.21 1010.40 1010.54 1010.69 1010.89 1011.16 1011.48 1011.80 1012.09 1012.31 1012.44 1012.49 1012.49 1012.47 1012.48 1012.56
1007.37 1007.02 1006.78 1006.76 1007.05 1007.68 1008.60 1009.72 1010.85 1011.82 1012.45 1012.60 1012.24 1011.37 1010.11 1008.63 1007.15 1005.85 1004.90 1004.40 1004.37 1004.76 1005.47 1006.36 1007.29 1008.15 1008.87 1009.42 1009.82 1010.10 1010.34 1010.58 1010.86 1011.17 1011.51 1011.85 1012.13 1012.34 1012.46 1012.49 1012.47 1012.44 1012.44 1012.49
1008.03 1007.77 1007.51 1007.36 1007.42 1007.73 1008.29 1009.03 1009.82 1010.54 1011.02 1011.16 1010.90 1010.24 1009.26 1008.08 1006.87 1005.79 1004.98 1004.52 1004.43 1004.70 1005.24 1005.97 1006.75 1007.51 1008.18 1008.73 1009.19 1009.56 1009.91 1010.25 1010.62 1011.01 1011.40 1011.76 1012.06 1012.27 1012.39 1012.42 1012.40 1012.36 1012.34 1012.38
1008.74 1008.57 1008.32 1008.07 1007.91 1007.90 1008.07 1008.40 1008.82 1009.22 1009.51 1009.59 1009.41 1008.94 1008.24 1007.38 1006.48 1005.65 1005.00 1004.60 1004.48 1004.63 1005.00 1005.53 1006.14 1006.75 1007.34 1007.87 1008.35 1008.79 1009.23 1009.68 1010.14 1010.61 1011.06 1011.47 1011.81 1012.05 1012.18 1012.23 1012.22 1012.18 1012.17 1012.19
1009.46 1009.41 1009.19 1008.88 1008.53 1008.24 1008.05 1007.98 1008.01 1008.09 1008.15 1008.13 1007.98 1007.66 1007.20 1006.63 1006.02 1005.44 1004.96 1004.63 1004.50 1004.54 1004.75 1005.09 1005.51 1005.96 1006.43 1006.90 1007.38 1007.86 1008.36 1008.89 1009.43 1009.98 1010.50 1010.96 1011.34 1011.62 1011.79 1011.88 1011.90 1011.89 1011.89 1011.92
1010.17 1010.25 1010.09 1009.74 1009.27 1008.76 1008.27 1007.84 1007.52 1007.28 1007.10 1006.95 1006.78 1006.56 1006.28 1005.95 1005.58 1005.22 1004.90 1004.66 1004.52 1004.48 1004.55 1004.71 1004.95 1005.24 1005.58 1005.97 1006.40 1006.88 1007.41 1007.98 1008.57 1009.17 1009.73 1010.24 1010.67 1010.99 1011.22 1011.36 1011.43 1011.47 1011.51 1011.56
1010.82 1011.01 1010.92 1010.59 1010.06 1009.40 1008.69 1007.99 1007.38 1006.86 1006.47 1006.17 1005.95 1005.77 1005.61 1005.44 1005.27 1005.09 1004.92 1004.76 1004.63 1004.53 1004.49 1004.51 1004.58 1004.72 1004.93 1005.21 1005.56 1005.99 1006.50 1007.06 1007.65 1008.25 1008.83 1009.36 1009.82 1010.19 1010.48 1010.68 1010.82 1010.93 1011.02 1011.11
1011.34 1011.61 1011.60 1011.32 1010.78 1010.06 1009.22 1008.35 1007.54 1006.82 1006.25 1005.82 1005.53 1005.36 1005.27 1005.22 1005.19 1005.15 1005.09 1005.01 1004.90 1004.78 1004.67 1004.57 1004.52 1004.51 1004.58 1004.74 1004.98 1005.32 1005.74 1006.23 1006.77 1007.33 1007.88 1008.39 1008.86 1009.26 1009.59 1009.86 1010.08 1010.26 1010.42 1010.56
1011.65 1011.97 1012.03 1011.81 1011.32 1010.61 1009.74 1008.80 1007.89 1007.06 1006.37 1005.86 1005.52 1005.34 1005.28 1005.31 1005.38 1005.45 1005.48 1005.47 1005.40 1005.28 1005.13 1004.96 1004.80 1004.68 1004.61 1004.63 1004.74 1004.94 1005.23 1005.60 1006.02 1006.48 1006.95 1007.42 1007.85 1008.26 1008.61 1008.93 1009.22 1009.46 1009.69 1009.88
1011.72 1012.05 1012.15 1012.00 1011.58 1010.94 1010.12 1009.21 1008.29 1007.44 1006.72 1006.17 1005.81 1005.64 1005.61 1005.69 1005.83 1005.98 1006.09 1006.14 1006.12 1006.02 1005.85 1005.63 1005.40 1005.18 1005.00 1004.87 1004.83 1004.87 1005.00 1005.20 1005.47 1005.78 1006.13 1006.50 1006.87 1007.24 1007.59 1007.93 1008.25 1008.55 1008.82 1009.06
1011.53 1011.83 1011.95 1011.86 1011.53 1010.99 1010.29 1009.47 1008.63 1007.84 1007.16 1006.64 1006.30 1006.15 1006.15 1006.27 1006.46 1006.67 1006.85 1006.96 1006.98 1006.91 1006.75 1006.51 1006.23 1005.93 1005.65 1005.40 1005.20 1005.07 1005.02 1005.04 1005.12 1005.27 1005.46 1005.70 1005.97 1006.26 1006.57 1006.89 1007.21 1007.53 1007.82 1008.08
1011.12 1011.35 1011.47 1011.42 1011.18 1010.77 1010.21 1009.54 1008.84 1008.17 1007.59 1007.14 1006.86 1006.75 1006.78 1006.94 1007.17 1007.42 1007.64 1007.80 1007.87 1007.83 1007.69 1007.45 1007.14 1006.80 1006.43 1006.08 1005.75 1005.47 1005.25 1005.09 1004.99 1004.96 1004.99 1005.07 1005.21 1005.39 1005.62 1005.87 1006.15 1006.43 1006.71 1006.96
1010.55 1010.70 1010.79 1010.76 1010.61 1010.33 1009.92 1009.43 1008.89 1008.37 1007.92 1007.58 1007.37 1007.31 1007.38 1007.56 1007.81 1008.08 1008.33 1008.52 1008.62 1008.62 1008.50 1008.28 1007.98 1007.61 1007.20 1006.78 1006.36 1005.97 1005.62 1005.31 1005.05 1004.86 1004.72 1004.65 1004.63 1004.68 1004.78 1004.93 1005.12 1005.32 1005.54 1005.75
1009.92 1009.98 1010.02 1010.01 1009.92 1009.75 1009.49 1009.16 1008.80 1008.44 1008.12 1007.89 1007.76 1007.74 1007.84 1008.03 1008.28 1008.55 1008.80 1009.00 1009.12 1009.14 1009.06 1008.87 1008.59 1008.23 1007.82 1007.38 1006.93 1006.47 1006.04 1005.63 1005.26 1004.93 1004.66 1004.43 1004.27 1004.17 1004.12 1004.13 1004.18 1004.27 1004.38 1004.51
1009.29 1009.26 1009.26 1009.25 1009.22 1009.14 1009.01 1008.83 1008.61 1008.39 1008.20 1008.05 1007.98 1008.00 1008.10 1008.27 1008.50 1008.74 1008.98 1009.17 1009.29 1009.33 1009.27 1009.12 1008.88 1008.57 1008.20 1007.78 1007.34 1006.89 1006.43 1005.98 1005.55 1005.14 1004.76 1004.41 1004.11 1003.86 1003.65 1003.50 1003.39 1003.33 1003.32 1003.33
1008.70 1008.61 1008.58 1008.57 1008.58 1008.57 1008.54 1008.48 1008.38 1008.27 1008.16 1008.08 1008.05 1008.07 1008.15 1008.29 1008.46 1008.66 1008.85 1009.01 1009.12 1009.16 1009.13 1009.02 1008.83 1008.58 1008.28 1007.93 1007.55 1007.15 1006.72 1006.29 1005.85 1005.40 1004.96 1004.53 1004.11 1003.72 1003.36 1003.04 1002.78 1002.56 1002.40 1002.29
Thickness
5865 5850 5840 5847 5857 5861 5857 5850 5846 5858 5873 5862 5851 5846 5850 5855 5850 5844 5840 5835 5830 5827 5829 5828 5825 5823 5818 5814 5810 5807 5804 5802 5801 5798 5795 5793 5791 5792 5792 5791 5790 5789 5787 5786
5851 5846 5863 5873 5871 5867 5859 5849 5850 5861 5875 5864 5853 5851 5858 5859 5854 5853 5847 5841 5837 5833 5830 5828 5826 5824 5820 5815 5812 5808 5805 5804 5801 5799 5798 5796 5794 5793 5792 5791 5790 5789 5788 5787
5843 5859 5876 5870 5862 5856 5856 5852 5854 5855 5866 5868 5854 5842 5850 5859 5863 5860 5857 5853 5848 5841 5834 5830 5828 5826 5823 5818 5814 5812 5809 5806 5804 5802 5800 5798 5795 5793 5791 5790 5789 5789 5789 5788
5853 5869 5868 5862 5859 5859 5846 5868 5866 5861 5849 5842 5849 5816 5837 5852 5852 5855 5856 5856 5853 5850 5844 5837 5833 5829 5826 5823 5821 5816 5812 5808 5806 5805 5801 5797 5792 5789 5789 5790 5790 5790 5790 5789
5851 5864 5861 5854 5862 5865 5858 5871 5864 5859 5851 5842 5848 5828 5830 5848 5842 5850 5858 5861 5860 5857 5852 5845 5839 5835 5833 5830 5825 5820 5815 5810 5808 5806 5802 5798 5795 5793 5793 5792 5791 5790 5789 5789
5863 5878 5874 5869 5876 5875 5872 5864 5856 5854 5843 5816 5838 5828 5823 5845 5849 5854 5861 5864 5863 5862 5857 5851 5846 5841 5837 5834 5829 5823 5816 5812 5810 5807 5804 5800 5796 5794 5792 5791 5790 5790 5789 5789
5845 5861 5875 5879 5862 5867 5862 5838 5812 5804 5802 5809 5846 5835 5834 5860 5868 5864 5863 5865 5867 5865 5859 5853 5846 5841 5838 5834 5831 5826 5818 5813 5811 5808 5805 5803 5799 5796 5793 5792 5791 5790 5788 5787
5828 5833 5861 5871 5862 5851 5851 5841 5809 5790 5790 5815 5841 5831 5847 5873 5876 5876 5872 5868 5867 5865 5861 5855 5851 5845 5841 5837 5832 5828 5821 5815 5813 5810 5806 5804 5802 5799 5797 5795 5793 5791 5789 5788
5833 5836 5870 5876 5878 5864 5843 5845 5853 5829 5822 5814 5825 5833 5850 5870 5869 5870 5868 5866 5863 5863 5862 5858 5854 5849 5845 5840 5835 5830 5824 5818 5815 5812 5808 5805 5802 5800 5797 5796 5794 5792 5790 5789
5843 5831 5855 5872 5875 5872 5867 5861 5850 5830 5803 5797 5813 5821 5828 5844 5852 5861 5862 5860 5859 5863 5861 5858 5855 5851 5847 5843 5838 5833 5827 5821 5817 5813 5809 5806 5802 5800 5798 5795 5792 5790 5788 5787
5849 5828 5838 5852 5848 5848 5854 5852 5847 5839 5831 5807 5792 5812 5851 5851 5858 5860 5863 5862 5860 5859 5859 5855 5854 5851 5847 5843 5838 5832 5827 5821 5817 5814 5809 5806 5803 5801 5798 5794 5791 5788 5786 5784
5846 5836 5824 5839 5865 5872 5862 5856 5849 5824 5815 5821 5806 5809 5859 5861 5867 5867 5866 5864 5860 5860 5859 5856 5853 5849 5844 5839 5836 5831 5827 5822 5818 5814 5809 5805 5802 5799 5796 5793 5790 5787 5784 5782
5838 5823 5804 5813 5836 5852 5850 5855 5856 5849 5833 5817 5803 5809 5858 5860 5864 5867 5864 5862 5859 5857 5855 5852 5848 5844 5840 5837 5833 5829 5826 5822 5818 5814 5808 5804 5800 5797 5794 5792 5789 5786 5782 5779
5837 5818 5806 5800 5817 5836 5836 5844 5852 5844 5826 5815 5818 5824 5843 5849 5851 5854 5857 5856 5855 5852 5848 5845 5840 5838 5836 5833 5830 5827 5824 5821 5817 5811 5806 5801 5798 5795 5792 5790 5787 5783 5780 5777
5829 5809 5812 5820 5832 5838 5837 5839 5843 5838 5837 5825 5829 5833 5840 5847 5849 5847 5848 5850 5847 5844 5842 5839 5835 5832 5831 5829 5826 5824 5821 5818 5815 5808 5803 5799 5797 5794 5790 5787 5784 5781 5778 5775
5818 5804 5806 5806 5823 5828 5827 5837 5840 5840 5842 5839 5836 5835 5854 5854 5851 5844 5841 5841 5840 5837 5836 5835 5831 5829 5826 5824 5822 5820 5817 5815 5811 5805 5801 5798 5794 5791 5787 5784 5781 5777 5774 5772
5803 5795 5788 5787 5807 5811 5805 5830 5835 5836 5843 5839 5829 5837 5850 5844 5839 5837 5836 5835 5835 5834 5832 5829 5826 5824 5823 5821 5819 5815 5813 5811 5807 5802 5798 5795 5792 5787 5784 5782 5777 5773 5770 5768
5792 5785 5784 5783 5783 5767 5811 5848 5847 5838 5840 5846 5842 5844 5846 5843 5842 5842 5841 5834 5831 5830 5828 5826 5824 5821 5820 5819 5816 5814 5811 5807 5802 5797 5793 5791 5787 5784 5780 5777 5773 5770 5767 5763
5794 5780 5773 5774 5768 5780 5808 5831 5835 5824 5820 5839 5835 5837 5840 5842 5837 5830 5832 5831 5828 5827 5824 5822 5821 5818 5816 5814 5812 5808 5804 5801 5796 5792 5789 5786 5783 5779 5776 5772 5769 5766 5762 5759
5785 5780 5766 5765 5758 5760 5793 5824 5836 5822 5800 5827 5830 5826 5826 5826 5807 5806 5821 5823 5822 5820 5818 5816 5815 5813 5809 5807 5806 5800 5796 5793 5789 5787 5785 5782 5779 5775 5771 5768 5765 5763 5759 5755
5760 5759 5756 5756 5755 5771 5804 5819 5818 5783 5784 5814 5820 5819 5817 5809 5806 5808 5813 5813 5812 5811 5810 5809 5806 5802 5800 5799 5796 5791 5788 5786 5785 5782 5779 5776 5773 5770 5768 5764 5761 5757 5754 5751
5755 5753 5751 5751 5743 5755 5798 5802 5788 5785 5801 5808 5809 5810 5807 5805 5806 5804 5802 5801 5800 5799 5798 5797 5794 5791 5791 5790 5786 5781 5779 5780 5779 5776 5772 5769 5766 5764 5763 5757 5754 5752 5748 5744
5756 5756 5757 5754 5753 5769 5784 5785 5790 5795 5793 5796 5798 5798 5796 5794 5793 5792 5790 5789 5789 5788 5786 5786 5784 5781 5780 5780 5777 5772 5772 5772 5770 5766 5763 5761 5759 5757 5754 5750 5747 5744 5741 5738
5752 5761 5754 5749 5756 5766 5772 5778 5783 5787 5786 5789 5789 5789 5786 5781 5781 5780 5779 5778 5777 5776 5775 5774 5772 5769 5768 5769 5768 5766 5765 5764 5761 5757 5755 5754 5751 5749 5747 5744 5742 5738 5735 5731
5741 5744 5740 5738 5745 5750 5758 5764 5770 5775 5779 5779 5779 5778 5775 5772 5770 5769 5766 5765 5765 5765 5764 5763 5760 5757 5757 5758 5758 5758 5757 5755 5751 5749 5747 5745 5744 5743 5739 5737 5734 5732 5730 5727
5737 5734 5728 5727 5738 5738 5742 5754 5759 5760 5761 5764 5764 5764 5765 5763 5760 5759 5757 5756 5755 5754 5753 5751 5749 5748 5748 5748 5747 5748 5748 5746 5742 5739 5737 5737 5737 5735 5732 5729 5726 5724 5722 5720